This demonstration page uses our WeatherBlox Daily Observations layout. Learn more.

Left ArrowRight Arrow

Hourly Observations for August 25, 2015

Temp ( °F °C ) Dew Point ( °F °C ) Humidity (%) Winds ( mph kmh ) Pressure ( in mb ) Visibility ( mi km ) Precip ( " mm )
12:15 am 00:15 Clear 59 15 54 12.1 83 83 SSE 3 6 30.09 1019 10 16 N/A
12:35 am 00:35 Clear 60 15.4 51 10.8 74 74 SE 5 7 30.09 1019 10 16 N/A
12:55 am 00:55 Clear 60 15.4 50 10.2 71 71 SSE 5 7 30.09 1019 10 16 N/A
1:15 am 01:15 Clear 59 15 49 9.7 71 71 SE 5 7 30.09 1019 10 16 N/A
1:35 am 01:35 Clear 57 14.1 50 9.8 76 76 SE 3 6 30.12 1020 10 16 N/A
1:55 am 01:55 Clear 58 14.2 49 9.3 73 73 SE 3 6 30.12 1020 10 16 N/A
2:15 am 02:15 Clear 56 13.1 49 9.5 79 79 Calm 30.12 1020 10 16 N/A
2:35 am 02:35 Clear 55 12.5 49 9.4 82 82 E 3 6 30.12 1020 10 16 N/A
2:55 am 02:55 Clear 53 11.7 50 9.8 88 88 E 5 7 30.12 1020 10 16 N/A
3:15 am 03:15 Clear 53 11.5 49 9.7 89 89 ENE 5 7 30.12 1020 10 16 N/A
3:35 am 03:35 Clear 53 11.8 50 10.1 89 89 E 6 9 30.12 1020 10 16 N/A
3:50 am 03:50 Clear 53 11.8 50 10.1 89 89 E 5 7 30.12 1020 10 16 N/A
4:15 am 04:15 Clear 53 11.7 50 10 89 89 Calm 30.12 1020 10 16 N/A
4:35 am 04:35 Clear 53 11.5 50 10 91 91 ENE 3 6 30.12 1020 10 16 N/A
4:55 am 04:55 Clear 53 11.5 50 9.9 90 90 NE 3 6 30.12 1020 10 16 N/A
5:15 am 05:15 Clear 52 11.2 50 9.9 92 92 Calm 30.15 1021 10 16 N/A
5:35 am 05:35 Clear 51 10.7 49 9.4 92 92 NE 5 7 30.15 1021 10 16 N/A
5:55 am 05:55 Clear 51 10.8 49 9.6 92 92 NE 3 6 30.15 1021 10 16 N/A
6:15 am 06:15 Clear 52 11 50 9.9 93 93 ENE 6 9 30.15 1021 10 16 N/A
6:35 am 06:35 Clear 52 10.9 49 9.7 92 92 ENE 6 9 30.15 1021 10 16 N/A
6:55 am 06:55 Clear 51 10.6 49 9.3 92 92 ENE 5 7 30.15 1021 10 16 N/A
7:15 am 07:15 Sunny 51 10.8 49 9.5 92 92 E 6 9 30.18 1022 10 16 N/A
7:35 am 07:35 Sunny 53 11.4 50 10 91 91 E 3 6 30.18 1022 10 16 N/A
7:55 am 07:55 Sunny 54 12.4 52 10.9 91 91 Calm 30.15 1021 10 16 N/A
8:15 am 08:15 Sunny 59 14.8 54 12.2 85 85 ESE 6 9 30.12 1020 10 16 N/A
8:35 am 08:35 Sunny 60 15.6 55 12.7 83 83 Calm 30.12 1020 10 16 N/A
8:55 am 08:55 Sunny 61 16.2 54 12.2 77 77 ESE 6 9 30.15 1021 10 16 N/A
9:15 am 09:15 Sunny 63 17 55 13 77 77 ESE 6 9 30.15 1021 10 16 N/A
9:35 am 09:35 Sunny 64 17.6 56 13.1 75 75 SE 6 9 30.15 1021 10 16 N/A
9:55 am 09:55 Sunny 65 18.6 57 13.9 74 74 SE 6 9 30.12 1020 10 16 N/A
10:15 am 10:15 Sunny 67 19.5 58 14.5 73 73 ESE 5 7 30.09 1019 10 16 N/A
10:35 am 10:35 Sunny 68 20.2 59 14.9 72 72 SE 5 7 30.09 1019 10 16 N/A
10:55 am 10:55 Sunny 70 21.1 60 15.8 72 72 ESE 7 11 30.09 1019 10 16 N/A
11:15 am 11:15 Sunny 71 21.9 61 16.3 71 71 ESE 6 9 30.06 1018 10 16 N/A
11:35 am 11:35 Sunny 73 22.9 62 16.9 69 69 ESE 6 9 30.06 1018 10 16 N/A
11:55 am 11:55 Sunny 74 23.3 62 16.8 67 67 ESE 6 9 30.06 1018 10 16 N/A
12:15 pm 12:15 Sunny 76 24.7 64 18 66 66 ESE 6 9 30.03 1017 10 16 N/A
12:35 pm 12:35 Sunny 77 25.2 65 18.1 65 65 Calm 30.03 1017 10 16 N/A
12:55 pm 12:55 Sunny 79 26 65 18.6 64 64 Calm 30.03 1017 10 16 N/A
1:15 pm 13:15 Sunny 80 26.6 66 19.1 64 64 SE 8 13 30.03 1017 10 16 N/A
1:35 pm 13:35 Sunny 80 26.8 66 18.8 62 62 SSE 9 15 30.00 1016 10 16 N/A
1:55 pm 13:55 Sunny 81 27 67 19.4 63 63 SSE 10 17 30.00 1016 10 16 N/A
2:15 pm 14:15 Sunny 81 27.3 67 19.4 62 62 SE 10 17 30.00 1016 10 16 N/A
2:35 pm 14:35 Sunny 82 27.6 67 19.3 61 61 SSE 8 13 30.00 1016 10 16 N/A
2:55 pm 14:55 Sunny 82 27.6 67 19.5 61 61 SSE 10 17 30.00 1016 10 16 N/A
3:15 pm 15:15 Sunny 82 28 67 19.7 61 61 SSE 8 13 30.00 1016 10 16 N/A
3:35 pm 15:35 Sunny 82 28 66 19.1 58 58 SE 8 13 30.00 1016 10 16 N/A
3:55 pm 15:55 Sunny 82 28 66 18.9 58 58 SSE 8 13 29.94 1014 10 16 N/A
4:15 pm 16:15 Sunny 83 28.2 66 18.7 56 56 SSE 8 13 29.94 1014 10 16 N/A
4:35 pm 16:35 Sunny 83 28.5 66 18.9 56 56 SE 10 17 29.94 1014 10 16 N/A
4:55 pm 16:55 Sunny 83 28.4 66 18.9 56 56 S 10 17 29.94 1014 10 16 N/A
5:15 pm 17:15 Sunny 83 28.3 66 19.1 57 57 SSE 9 15 29.94 1014 10 16 N/A
5:35 pm 17:35 Sunny 83 28.1 66 18.8 57 57 SSE 9 15 29.94 1014 10 16 N/A
5:55 pm 17:55 Sunny 82 27.8 66 18.7 58 58 SE 9 15 29.94 1014 10 16 N/A
6:15 pm 18:15 Sunny 82 27.6 65 18.5 58 58 SSE 9 15 29.94 1014 10 16 N/A
6:35 pm 18:35 Sunny 81 27.4 65 18.1 57 57 SE 8 13 29.94 1014 10 16 N/A
6:55 pm 18:55 Sunny 81 27 64 17.6 56 56 SE 6 9 29.94 1014 10 16 N/A
7:15 pm 19:15 Sunny 80 26.4 64 17.9 60 60 SE 7 11 29.94 1014 10 16 N/A
7:35 pm 19:35 Sunny 78 25.7 65 18.1 63 63 ESE 8 13 29.94 1014 10 16 N/A
7:55 pm 19:55 Sunny 76 24.6 65 18.5 69 69 ESE 7 11 29.94 1014 10 16 N/A
8:15 pm 20:15 Sunny 75 23.8 65 18.4 72 72 E 7 11 29.94 1014 10 16 N/A
8:35 pm 20:35 Clear 74 23.2 65 18.5 75 75 ESE 8 13 29.97 1015 10 16 N/A
8:55 pm 20:55 Clear 73 22.8 65 18.3 76 76 ESE 8 13 30.00 1016 10 16 N/A
9:15 pm 21:15 Clear 72 22 65 18.2 79 79 ESE 7 11 30.00 1016 10 16 N/A
9:35 pm 21:35 Clear 71 21.5 65 18.1 81 81 E 6 9 30.00 1016 10 16 N/A
9:55 pm 21:55 Clear 70 21 64 18 83 83 ESE 6 9 30.00 1016 10 16 N/A
10:15 pm 22:15 Clear 68 20.1 64 17.5 85 85 ESE 6 9 30.06 1018 10 16 N/A
10:35 pm 22:35 Clear 68 20.1 63 17.4 85 85 ESE 5 7 30.06 1018 10 16 N/A
10:55 pm 22:55 Clear 67 19.6 63 17 85 85 ESE 5 7 30.06 1018 10 16 N/A
11:15 pm 23:15 Clear 65 18.2 61 16.1 88 88 E 3 6 30.06 1018 10 16 N/A
11:35 pm 23:35 Clear 63 17.3 61 16 92 92 E 3 6 30.09 1019 10 16 N/A
11:55 pm 23:55 Clear 63 17 60 15.6 92 92 ESE 5 7 30.09 1019 10 16 N/A

Powered by AerisWeather